Theta_e
307 308 305 305 304 303 303 304 305 304 306 307 308 307 308 307 305 300 303 311 313 319 317 316 314 308 305 306 307 311 312 306 306 306 304 304 304 303 301 302 303 302 302 303 304 303 304
310 306 305 305 304 305 304 304 304 303 306 306 307 308 307 306 304 303 301 313 314 318 316 315 310 306 306 308 312 312 305 303 302 302 302 303 304 304 303 303 302 303 303 302 302 302 302
305 306 306 305 304 304 303 304 305 304 307 307 306 306 305 305 303 305 305 314 314 316 316 313 307 306 309 310 309 306 305 304 303 303 303 304 304 304 303 302 303 303 301 300 301 302 303
302 306 306 306 304 303 303 305 305 306 306 307 306 305 305 302 309 307 310 314 315 315 313 307 306 305 308 309 306 305 304 304 303 303 303 303 303 302 302 303 301 301 300 300 300 302 303
306 307 305 305 304 304 306 305 305 306 306 306 305 304 302 307 310 307 313 313 314 311 307 306 304 304 304 306 307 305 304 304 304 304 304 304 304 303 303 299 298 298 300 300 302 303 303
305 305 305 304 304 304 304 305 305 305 304 304 304 302 304 309 310 313 313 312 308 306 306 306 305 304 304 305 305 303 303 304 304 305 304 304 303 298 297 297 298 297 297 299 300 302 302
303 302 304 305 304 303 303 305 302 303 308 304 302 305 309 309 310 310 311 307 306 304 304 304 304 303 303 303 303 303 303 303 304 304 302 303 299 300 299 300 301 302 301 302 302 302 302
302 302 302 305 306 306 305 302 301 307 307 309 308 307 307 305 308 308 307 306 305 304 305 304 304 303 303 304 303 303 304 304 304 302 303 301 298 301 301 301 301 301 304 303 303 303 303
302 301 301 301 301 300 301 303 301 308 306 304 306 305 308 307 308 308 306 305 305 305 306 306 306 306 305 306 305 304 304 305 305 306 306 303 302 304 305 306 305 304 303 303 303 304 304
302 301 300 299 299 304 304 303 302 308 308 307 307 306 307 308 307 305 305 305 304 305 300 305 306 306 306 307 306 305 305 306 305 306 305 303 304 305 305 306 305 307 304 305 306 308 310
302 300 300 299 300 305 305 302 304 307 307 307 307 307 307 308 307 305 304 305 306 306 305 304 307 307 306 308 307 306 307 307 306 306 306 304 305 308 308 308 306 308 306 308 309 312 312
302 301 300 300 302 304 304 303 305 306 306 306 306 306 307 308 308 304 305 306 304 300 302 301 307 307 308 308 308 307 308 308 308 308 307 307 307 307 307 308 307 307 308 309 311 312 309
302 302 301 300 300 303 305 307 306 306 306 306 307 307 307 308 307 305 306 305 300 301 301 305 307 308 308 310 310 309 309 309 309 310 300 306 308 307 307 309 311 311 311 309 307 306 309
302 302 302 301 300 302 304 305 305 306 306 306 306 307 306 305 305 306 305 301 302 305 303 305 306 308 308 308 310 311 311 311 308 310 313 306 307 307 308 310 313 313 312 314 310 316 314
301 301 302 301 300 301 304 303 303 303 305 306 305 305 305 306 307 307 305 299 302 304 305 307 307 308 307 308 308 312 311 309 308 308 311 309 308 308 309 311 312 314 317 314 315 314 313
301 301 301 301 299 300 304 306 306 306 305 305 305 306 306 306 307 306 301 303 303 303 306 307 308 307 308 308 308 309 309 308 310 308 307 309 313 309 311 311 311 314 313 313 308 317 316
300 300 299 300 299 305 306 307 307 307 306 306 306 305 306 306 306 306 300 302 305 306 307 308 308 308 308 309 308 308 309 308 309 309 307 308 309 309 308 311 312 309 309 310 311 313 314
302 300 299 299 300 306 307 308 308 307 306 307 306 301 306 306 305 300 303 305 307 308 308 308 308 308 308 308 309 308 309 307 309 309 309 308 306 307 309 306 307 309 309 307 305 311 308
307 303 301 301 301 306 308 307 307 307 307 306 305 305 306 307 301 301 303 306 307 308 308 308 308 307 307 308 309 308 308 309 310 308 308 307 304 303 303 303 305 308 307 307 306 304 307
307 307 304 302 303 304 308 306 306 306 306 306 305 299 305 306 304 302 304 305 306 307 308 308 307 307 307 307 307 308 308 307 308 309 309 307 304 305 304 306 306 308 307 305 305 302 308
304 307 308 307 303 304 307 307 306 306 307 306 306 302 302 298 302 302 304 305 306 306 307 307 307 307 307 307 307 308 307 306 306 307 307 305 306 303 304 304 306 307 306 306 302 304 306
298 303 307 308 307 304 304 305 305 306 307 306 305 305 304 302 302 303 302 305 306 307 307 307 308 307 307 307 307 307 307 306 307 305 305 302 306 305 305 306 304 304 304 304 307 307 306
299 297 302 307 307 306 305 307 307 307 304 305 305 306 305 301 300 301 302 306 307 307 307 307 307 306 306 306 307 307 307 306 305 305 304 303 304 303 303 302 301 301 302 304 307 306 306
303 298 297 302 307 307 307 307 305 304 304 303 303 305 305 301 299 301 303 304 306 307 307 308 307 306 306 307 307 306 305 304 303 303 303 304 303 303 303 299 298 300 304 304 305 305 304
308 301 298 297 302 306 307 307 305 305 304 304 304 305 304 300 301 301 302 302 305 306 306 307 307 308 307 307 304 303 301 303 304 304 301 302 301 304 303 301 300 302 302 304 304 304 302
309 309 300 298 296 300 305 306 305 305 306 303 303 303 303 302 299 303 302 303 301 302 302 306 308 307 307 303 303 306 303 303 304 302 301 300 300 302 302 303 302 299 302 304 302 300 301
307 309 307 299 297 296 301 304 306 305 306 307 305 303 303 303 304 303 302 302 305 304 301 304 307 306 306 302 305 304 305 302 304 304 304 304 302 303 303 302 301 299 303 303 302 300 302
307 308 309 307 300 296 295 300 303 305 305 305 306 305 303 302 302 303 304 304 305 305 303 305 304 304 303 305 304 303 302 302 302 301 301 302 301 301 300 303 302 302 303 303 301 303 305
306 306 309 308 305 298 296 298 301 303 305 305 305 306 305 304 304 304 305 304 304 304 306 307 304 304 305 301 301 300 304 299 299 303 298 301 300 301 301 302 301 304 305 307 306 305 306
Wind_Speed
32 26 25 24 24 18 13 10 8 5 1 1 5 12 7 5 6 8 7 18 20 17 13 9 9 10 11 13 9 7 2 4 3 2 5 6 8 4 4 3 4 2 5 9 11 18 16
29 23 23 23 21 17 14 8 6 6 3 2 10 13 8 4 5 6 9 16 22 25 14 10 11 11 11 9 11 7 5 3 5 4 5 6 7 7 6 3 2 4 7 13 10 17 15
24 23 23 25 22 15 14 11 8 6 7 9 14 10 5 2 4 4 16 16 20 24 16 14 16 13 17 10 9 7 4 8 8 8 8 9 6 4 4 1 6 6 5 6 3 3 4
26 27 26 25 20 20 16 15 12 10 9 11 8 5 2 2 1 6 25 16 27 23 19 19 17 9 10 12 9 7 5 8 8 6 6 6 6 5 3 3 6 5 2 5 4 8 5
29 28 28 24 21 21 24 23 18 13 12 8 6 5 5 7 15 20 29 31 28 24 22 19 14 11 7 10 7 5 3 6 5 6 7 5 6 4 3 3 4 6 3 3 8 4 3
29 30 27 25 22 23 20 22 20 15 10 8 7 8 9 17 24 24 27 28 29 27 20 14 12 10 9 5 7 4 4 3 4 5 5 7 5 3 3 4 2 3 3 4 7 4 3
33 33 32 27 25 23 22 20 19 19 14 8 12 15 29 24 35 29 30 34 22 15 23 11 13 19 12 11 5 5 1 1 3 4 3 4 5 2 4 4 2 1 4 9 12 12 6
31 30 30 28 26 23 20 20 20 21 23 18 20 23 27 20 31 32 14 15 16 16 17 19 18 17 13 4 5 4 1 2 4 2 2 3 1 6 4 4 5 4 10 12 12 4 4
27 27 27 25 24 23 22 20 17 20 25 29 25 22 15 22 21 10 21 29 23 15 9 10 10 6 3 4 3 2 1 1 2 3 2 3 5 3 4 6 8 8 8 9 9 6 10
25 25 25 25 25 26 25 21 19 20 22 23 24 20 16 15 13 17 22 21 13 4 5 7 5 4 1 3 3 2 2 0 0 3 4 4 2 1 4 9 7 7 7 14 14 8 5
23 24 25 25 23 24 23 21 23 20 17 15 13 10 5 4 10 14 18 11 4 1 6 5 3 1 1 1 4 3 1 1 2 3 1 6 4 4 6 6 9 9 5 5 10 8 6
22 22 22 23 23 22 22 21 19 19 16 10 5 7 9 9 8 15 10 2 6 6 1 3 1 2 1 1 2 1 1 2 2 4 7 10 0 3 5 3 12 9 10 11 5 2 2
22 19 20 20 18 18 16 16 14 14 19 16 8 8 7 7 11 10 5 4 5 6 3 2 1 1 2 2 1 3 2 2 2 4 4 4 4 3 5 4 4 5 4 3 4 3 4
18 18 16 18 17 15 16 14 9 11 15 15 13 12 12 14 10 6 1 5 9 2 3 0 2 0 2 1 3 2 3 3 4 2 3 3 6 4 5 5 2 2 1 2 4 2 4
16 15 14 15 15 14 15 17 15 13 13 11 14 12 9 7 5 2 2 6 6 5 3 4 2 1 2 2 3 2 3 2 3 6 1 3 5 4 5 4 3 1 2 1 3 3 2
15 14 13 12 13 15 16 17 16 14 9 9 5 6 14 9 4 3 5 3 1 3 2 1 2 2 1 2 2 0 1 3 1 4 4 3 6 4 3 3 4 3 3 2 2 4 4
13 13 12 10 11 13 15 18 18 15 5 2 5 2 13 7 4 6 4 1 2 3 3 3 3 2 3 2 3 3 4 3 2 1 7 1 2 7 3 1 1 3 3 3 1 2 1
11 11 10 10 9 10 14 18 20 19 11 3 4 3 12 4 4 4 2 0 3 3 2 2 2 4 3 2 2 3 3 5 3 2 2 4 2 4 4 5 2 2 2 1 3 3 1
10 8 7 7 6 6 10 15 19 21 17 7 3 5 10 4 3 2 3 1 1 2 2 3 3 3 2 1 1 3 3 2 2 3 3 3 1 4 7 6 4 3 3 1 2 0 2
9 8 5 3 2 3 5 9 15 19 18 11 4 3 6 9 7 4 2 2 2 3 0 2 3 2 3 2 2 3 3 2 5 2 4 4 2 5 5 6 2 6 6 2 2 1 2
9 9 6 4 3 1 4 4 10 12 14 7 4 2 2 2 6 3 1 1 2 4 3 6 1 3 1 3 3 2 2 6 3 5 2 1 3 3 6 8 4 5 7 4 2 4 3
11 9 9 6 5 4 4 6 8 7 8 6 2 2 2 2 2 1 3 0 0 2 1 1 0 4 1 3 3 3 2 1 2 6 4 3 3 3 5 1 3 6 8 7 5 3 4
11 11 10 9 6 4 4 3 5 6 7 2 3 2 0 0 2 1 3 2 2 1 2 3 2 2 3 5 6 9 9 9 6 2 3 3 3 5 5 5 7 5 6 7 4 4 5
11 12 11 11 9 6 5 4 4 5 6 3 1 1 1 2 1 3 2 2 3 3 3 3 4 2 3 11 14 11 11 14 12 11 9 1 1 1 4 8 4 4 1 2 5 7 9
13 14 13 12 12 12 10 8 6 5 5 3 0 2 0 2 4 4 8 5 7 8 5 7 9 7 9 6 3 4 4 3 1 1 5 5 3 1 1 2 8 1 4 5 6 7 9
17 14 15 15 13 14 14 12 10 7 5 4 2 2 2 0 5 5 3 6 4 3 4 6 7 7 3 2 2 1 3 1 3 4 4 4 3 3 0 2 5 5 3 5 3 5 3
22 17 15 17 16 14 14 15 15 13 9 7 6 4 4 4 5 6 4 3 3 3 3 4 3 3 4 1 1 2 3 4 3 3 4 2 1 4 4 4 8 6 4 6 2 5 3
24 24 18 16 17 17 16 16 17 18 16 13 11 8 6 5 12 14 12 12 7 5 2 1 1 3 1 1 2 3 3 3 2 4 5 7 6 4 2 3 8 10 6 6 4 3 5
26 25 24 18 17 17 18 16 17 18 21 18 15 12 10 11 10 19 25 22 21 18 9 5 3 3 5 3 2 2 3 1 3 4 2 3 6 4 9 7 4 21 10 16 12 8 5
Wind_Direction
2 355 3 2 1 357 347 337 339 326 273 144 222 192 175 189 275 257 209 182 181 171 180 160 139 127 120 84 92 97 116 78 63 17 70 75 68 71 78 38 356 40 348 329 309 304 291
357 5 11 3 6 7 11 8 13 8 30 4 182 169 156 215 284 270 187 167 167 169 175 153 135 129 116 81 115 102 96 59 47 21 61 59 69 66 82 62 49 316 292 291 292 285 276
13 19 18 12 17 37 35 33 20 66 82 73 117 125 167 295 280 229 171 143 160 172 167 141 127 122 101 98 115 124 106 70 45 46 68 59 53 52 36 61 352 322 337 317 334 3 299
29 23 25 22 36 35 23 36 59 81 106 114 107 112 78 32 343 170 163 149 147 151 144 134 128 127 86 117 114 97 89 77 58 52 52 38 26 69 42 352 3 9 45 358 319 329 296
34 31 32 38 47 41 47 57 66 85 102 94 96 86 60 111 100 136 140 131 135 127 126 131 122 110 97 131 134 117 88 81 64 51 43 19 31 59 47 56 14 12 321 314 313 310 281
38 37 42 47 49 44 44 47 54 65 70 81 82 66 97 122 142 141 136 124 113 113 112 112 103 81 125 143 151 129 112 51 21 14 10 28 46 56 38 58 247 276 330 287 247 279 308
46 44 49 49 55 46 48 50 46 46 46 79 109 85 106 135 118 126 121 109 98 76 74 74 83 93 114 123 126 144 125 16 31 43 23 26 48 283 223 207 204 260 241 269 263 268 278
49 51 51 53 55 58 51 52 58 55 53 76 116 99 108 113 119 120 119 107 109 118 72 74 85 97 113 120 113 118 135 32 44 7 323 7 248 236 210 208 221 221 274 274 287 268 201
46 51 57 54 51 51 51 45 62 69 77 89 107 95 106 124 127 104 115 112 120 117 98 65 72 79 87 68 90 158 116 55 75 314 242 203 235 155 181 271 267 242 236 254 239 306 256
45 49 51 53 55 60 53 59 82 84 89 94 97 107 115 106 88 119 119 122 120 94 81 348 9 50 164 133 56 164 195 109 340 315 342 243 229 200 237 259 216 283 223 244 264 289 309
47 48 52 54 65 61 65 68 94 83 102 117 96 87 101 61 111 128 133 124 73 358 70 302 340 6 116 56 157 211 321 313 251 293 125 255 199 234 271 256 168 241 239 247 273 261 302
46 49 49 57 67 70 70 73 81 72 73 83 89 76 84 90 105 134 142 103 340 44 2 326 309 345 346 218 218 185 296 255 269 274 244 256 257 230 229 258 210 252 291 281 270 280 292
44 50 49 49 61 68 72 77 77 62 57 52 65 69 100 92 101 139 160 323 42 80 277 278 186 338 292 251 205 184 242 249 210 331 331 314 206 223 198 264 212 223 298 332 352 3 238
51 51 53 48 49 64 61 58 47 42 34 38 69 77 91 93 82 140 165 47 66 244 205 18 127 194 296 182 253 228 292 294 206 203 307 -0 332 192 174 209 246 200 205 251 271 310 289
53 52 55 53 51 53 54 51 40 29 32 52 96 87 62 46 37 44 18 50 170 200 184 158 120 149 291 291 204 290 207 248 233 171 185 342 282 275 195 171 182 181 262 179 276 241 347
56 53 57 56 66 68 55 37 28 24 59 85 85 62 24 12 20 71 70 121 174 217 191 164 140 169 46 273 224 180 272 214 247 173 198 290 297 264 298 163 234 219 285 335 334 339 322
52 55 59 63 79 75 55 34 28 24 50 107 3 44 4 23 56 71 96 225 261 265 217 150 156 164 233 221 223 231 259 289 141 82 177 237 166 289 335 7 317 345 358 289 313 165 331
31 56 56 70 84 72 48 42 33 24 16 325 353 29 -0 20 44 32 74 107 349 336 353 282 221 207 191 215 264 249 251 216 197 181 230 193 172 282 273 322 316 212 356 50 106 347 82
17 27 55 56 87 95 60 44 40 33 26 10 34 343 7 28 92 16 322 321 185 8 7 356 343 11 5 263 277 221 261 253 201 181 214 178 229 328 341 345 353 49 314 269 252 84 233
353 1 12 28 63 121 105 57 36 23 25 30 4 13 18 47 76 105 49 342 341 344 99 23 349 11 347 279 225 287 291 306 325 238 259 170 190 178 193 221 197 303 316 26 115 72 182
319 326 339 338 314 224 216 295 339 357 9 22 49 56 54 343 11 38 135 301 345 4 22 15 55 72 310 306 312 272 308 322 338 2 45 60 263 193 254 244 222 239 259 307 184 222 193
310 303 306 317 311 290 298 319 327 341 357 41 38 115 105 39 316 22 337 175 301 314 227 301 110 311 238 244 222 275 4 312 302 329 26 2 287 342 283 69 285 266 239 239 238 220 241
299 299 293 295 305 288 287 339 346 341 345 32 86 89 323 269 356 21 217 181 200 340 244 255 250 286 266 238 246 259 255 260 243 314 314 21 359 7 276 335 304 298 239 190 198 205 168
289 288 287 278 276 274 273 303 330 353 -0 345 274 172 208 278 123 204 322 308 264 249 245 263 254 214 298 312 299 280 264 256 244 239 217 250 41 143 278 340 4 235 220 193 228 245 220
272 282 279 276 268 261 259 261 274 310 344 350 330 183 343 267 225 262 226 227 287 284 265 255 259 246 292 318 3 346 338 325 289 252 196 191 130 294 296 241 281 329 184 179 179 281 210
263 267 277 275 267 261 254 252 253 264 285 308 335 265 243 223 249 240 208 204 197 216 307 245 245 249 256 92 88 178 253 253 308 338 82 83 87 134 303 307 247 229 192 177 151 292 257
271 261 264 274 272 265 259 251 247 250 254 267 269 296 252 250 273 225 217 206 210 196 219 262 227 210 210 135 175 200 257 193 225 228 195 217 199 198 204 253 285 236 189 143 130 234 293
267 265 260 263 271 270 263 256 250 245 247 256 264 262 257 251 270 261 252 230 225 226 196 36 17 226 91 180 175 213 196 238 289 238 192 181 161 207 133 230 283 159 108 173 227 307 311
263 264 260 260 267 265 266 260 254 244 242 243 251 260 260 263 266 280 277 268 252 246 239 234 238 224 211 108 214 127 236 224 197 273 79 263 200 190 191 216 241 189 215 222 250 268 300